Regional Weather Roundup
Issued by NWS

Home | Current Version | Previous Version | Text Only | Print | Product List | Glossary On
Versions: 1 2 3 4 5 6 7 8 9 10 11 12 13 14 15 16 17 18 19 20 21 22 23 24 25 26 27 28 29 30 31 32 33 34 35 36 37 38 39 40 41 42 43 44 45 46 47 48 49 50
000
ASUS44 KFWD 030915
RWRTX
NORTH TEXAS HOURLY WEATHER ROUNDUP
NATIONAL WEATHER SERVICE FORT WORTH TX
400 AM CDT WED JUN 03 2015

NOTE: "FAIR" INDICATES FEW OR NO CLOUDS BELOW 12,000 FEET WITH NO
SIGNIFICANT WEATHER AND/OR OBSTRUCTIONS TO VISIBILITY.

TXZ118-119-031000-
DALLAS/FORT WORTH METROPLEX

CITY           SKY/WX    TMP DP  RH WIND       PRES   REMARKS
DFW AIRPORT    PTCLDY    70  63  78 S6        29.91S
DALLAS LOVE    CLEAR     74  66  76 SE9       29.92S
FTW MEACHAM    CLEAR     73  63  70 SE9       29.91S
DAL-EXECUTIVE  CLEAR     70  64  81 SE5       29.92S
FTW-ALLIANCE   PTCLDY    70  63  78 S5        29.91S
FTW-NAS-JRB    CLEAR     74  63  68 S8        29.91F
FTW-SPINKS     CLEAR     71  63  76 CALM      29.93S
ARLINGTON      CLEAR     72  62  71 S6        29.92S
GRAND PRAIRIE  CLEAR     73  65  76 SE3       29.93S
ADDISON        CLEAR     74  67  80 SE9       29.93F
MESQUITE       CLEAR     69  65  89 SE6       29.93S
LANCASTER      CLEAR     68  64  89 CALM      29.94R
$$

TXZ091>094-102>105-117-120-121-131>134-031000-
NORTH CENTRAL TEXAS

CITY           SKY/WX    TMP DP  RH WIND       PRES   REMARKS
SHRMAN/DENISON CLEAR     72  66  82 SE9       29.93F
GAINESVILLE    CLEAR     67  65  91 SE6       29.93F
BOWIE          CLEAR     67  63  86 SE6       29.91S
BRIDGEPORT     CLEAR     71  65  80 SE8       29.92F
DECATUR        CLEAR     69  61  74 SE7       29.92F HAZE
DENTON         CLEAR     69  65  86 SE7       29.91S
MCKINNEY       CLEAR     71  65  81 SE6       29.92F
GREENVILLE     CLEAR     68  63  83 SE3       29.94S
ROCKWALL       CLEAR     70  64  83 SE6       29.92S
TERRELL          N/A    N/A N/A N/A MISG      29.93F
WAXAHACHIE     CLEAR     68  65  92 CALM      29.94S
CLEBURNE       CLEAR     70  66  88 SE7       29.94S
GRANBURY       CLEAR     73  65  77 SE7       29.92S
$$

TXZ083>090-098>101-113>116-127>130-139>142-154-155-031000-
WESTERN NORTH TEXAS

CITY           SKY/WX    TMP DP  RH WIND       PRES   REMARKS
WICHITA FALLS  CLEAR     71  65  81 S14       29.87F
WF-KICKAPOO    CLEAR     73  66  80 S12       29.89F
VERNON         CLEAR     71  62  73 SE9       29.87S
ABILENE        CLEAR     72  61  68 S15       29.91S
ABILENE-DYESS  CLEAR     72  60  66 S14       29.89S
BRECKENRIDGE   CLEAR     72  63  74 S7        29.90S
GRAHAM         CLEAR     70  67  89 SE6       29.89S
MINERAL WELLS  CLEAR     69  66  90 SE9       29.90S
STEPHENVILLE   CLEAR     68  64  85 S3        29.95S
COMANCHE       CLEAR     71  65  82 S7        29.93S
BROWNWOOD      CLEAR     66  64  94 SE5       29.93S
COLEMAN        CLEAR     66  64  91 SW3       29.93S
BRADY          CLEAR     66  63  88 SE8       29.93F
$$

TXZ143>147-156>162-174-175-031000-
CENTRAL TEXAS

CITY           SKY/WX    TMP DP  RH WIND       PRES   REMARKS
WACO           CLEAR     72  64  76 SE8       29.92S
WACO-MCGREGOR  CLEAR     70  63  78 S7        29.93S
HILLSBORO      CLEAR     69  61  75 SE6       29.93S
CORSICANA      CLEAR     72  65  78 SE6       29.94S
MEXIA          CLEAR     68  64  87 SE10      29.92S
HEARNE         CLEAR     69  65  90 CALM      29.93S
CAMERON        CLEAR     70  67  88 CALM      29.92S
TEMPLE         CLEAR     68  63  83 SE6       29.91F
KILLEEN        CLEAR     72  65  78 VRB7      29.91F
KILLEEN-SKYLRK CLEAR     70  63  78 S3        29.92F
FORT HOOD      CLEAR     70  65  84 S3        29.91F
GATESVILLE     CLEAR     68  66  94 CALM      29.94F
HAMILTON       CLEAR     68  65  90 SE5       29.93F
LAMPASAS       CLEAR     71  67  88 CALM      29.92S
$$

TXZ095>097-106>112-122>126-135>138-148>153-164>167-031000-
EAST TEXAS

CITY           SKY/WX    TMP DP  RH WIND       PRES   REMARKS
PARIS          CLEAR     66  61  82 E7        29.94F
SULPHUR SPRNGS CLEAR     70  64  80 CALM      29.96S
MOUNT PLEASANT CLEAR     66  64  94 CALM      29.96S
GILMER         CLEAR    N/A N/A N/A CALM      29.95S
MINEOLA        CLEAR     66  66 100 CALM      29.95S FOG
TYLER          CLEAR     68  63  84 SE6       29.94S
LONGVIEW       CLEAR     67  64  90 CALM      29.94F
MARSHALL       CLEAR     68  66  93 CALM      29.97S
ATHENS         CLEAR     66  63  88 CALM      29.92S
PALESTINE      CLEAR     70  64  82 CALM      29.95S
JACKSONVILLE   CLEAR     68  61  76 CALM      29.97S
HENDERSON      CLEAR     64  64  97 MISG      29.96S
NACOGDOCHES    CLEAR     63  61  94 CALM      29.94S
LUFKIN         CLEAR     70  65  84 E6        29.94S
$$

SUPPLEMENTAL OBSERVATIONS (CENTRAL)

CITY           SKY/WX    TMP DP  RH WIND       PRES   REMARKS
LAKE TEXOMA      N/A     70  64  83 E3          N/A
CADDO GRASSLND   N/A     68  63  83 S3          N/A
PAT MAYSE LAKE   N/A     70  66  88 E6          N/A
GREENVILLE       N/A     68  63  83 SE2         N/A
CEDAR HILL       N/A     72  63  73 SE8         N/A
ATHENS           N/A     70  63  78 SE3         N/A
LAKE LIMESTONE   N/A     68  63  83 E1          N/A
MCGREGOR         N/A     70  66  88 SW3         N/A
TEMPLE           N/A     70  66  88 SE1         N/A
$$

SUPPLEMENTAL OBSERVATIONS (WEST)

CITY           SKY/WX    TMP DP  RH WIND       PRES   REMARKS
MILLERS CREEK    N/A     72  64  78 S12         N/A
POSSUM KINGDOM   N/A     70  63  78 SE6         N/A
LBJ GRASSLAND    N/A     72  61  68 SE8         N/A
GRANBURY         N/A     72  64  78 SE7         N/A
COMANCHE         N/A     70  63  78 S6          N/A
HAMBY            N/A    N/A N/A N/A S9          N/A
IVIE RESERVOIR   N/A     68  63  83 SE5         N/A
COLORADO BEND    N/A     70  63  78 SW6         N/A
$$

SUPPLEMENTAL OBSERVATIONS (EAST)

CITY           SKY/WX    TMP DP  RH WIND       PRES   REMARKS
CLARKSVILLE      N/A     66  64  94 E1          N/A
TEXARKANA        N/A    N/A N/A N/A CALM        N/A
LINDEN           N/A     64  61  88 CALM        N/A
CADDO LAKE       N/A    N/A N/A N/A CALM        N/A
GILMER           N/A     64  61  88 CALM        N/A
HENDERSON        N/A     64  59  82 CALM        N/A
LUFKIN           N/A     66  63  88 MISG        N/A
N SABINE NF      N/A     64  63  94 MISG        N/A
S SABINE NF      N/A     64  61  88 CALM        N/A
$$

SUPPLEMENTAL OBSERVATIONS ARE A COLLECTION OF AUTOMATED INSTRUMENTS
THAT ARE MAINTAINED BY A VARIETY OF FEDERAL AND STATE AGENCIES.
CERTAIN ELEMENTS...SUCH AS HUMIDITY VALUES AND SUSTAINED WIND
SPEEDS...MAY BE APPROXIMATED.



USA.gov is the U.S. government's official web portal to all federal, state and local government web resources and services.